COSMOS 2501 (702K)

Last updated on July 6, 2021, 3:40 p.m. UTC

1 40315U 14075A   21186.59106794  .00000028  00000-0  00000-0 0  9999
2 40315  63.7648 253.3375 0018370 210.9060  54.9698  2.13101497 51335
UTC
Height (km)
Latitude
Longitude
Inclination
Orbital Period
UTC large
Height (km)
Speed (km/s)
/
Latitude / Longitude
Inclination (degrees)
Orbital Period (minutes)
Azimuth
Elevation
Range (km)
Doppler Factor
iOS Compass Heading
iOS Angle